Location: Flotzheim
(48.8375°N, 10.8136°E)
Time: 17:30:31
(UTC+00:00)

ISS - Pass Details

Date: 23 January 2021
Orbit: 417 x 421 km, 51.6° (Epoch: 01 March)

Event Time Altitude Azimuth Distance (km) Brightness Sun altitude
Rises 18:30:43 0° 263° (W) 2,370 1.5 -24.5°
Reaches altitude 10° 18:32:50 10° 267° (W) 1,508 0.1 -24.8°
Enters shadow 18:34:55 33° 282° (WNW) 731 -2.0 -25.2°
